Location: ???????
(55.4362°N, 38.1183°E)
Time: 21:09:35
(UTC+00:00)

M-CUBED/EXP-1 PRIME - Pass Details

Date: 14 December 2021
Orbit: 426 x 650 km, 101.7° (Epoch: 26 January)

Event Time Altitude Azimuth Distance (km) Brightness Sun altitude
Rises 03:45:26 0° 33° (NNE) 2,955 ? -15.8°
Reaches altitude 10° 03:48:32 10° 56° (NE) 2,010 ? -15.4°
Maximum altitude 03:51:08 15° 92° (E) 1,644 ? -15.0°
Drops below altitude 10° 03:53:39 10° 129° (SE) 1,934 ? -14.7°
Sets 03:56:32 0° 153° (SSE) 2,782 ? -14.3°
